User: anonymous   Login
Location: Unspecified
(0.0000°N, 0.0000°E)
Time: 20:14:40
(UTC+00:00)
Language:

COSMOS 2496 - Orbit

View from above orbital plane
View from above orbital plane
View from above satellite
View from above satellite

Ground track
Ground track

The orbit data is extracted from the following two-line orbital elements,

1 39761U 14028A   18350.69896735 +.00000017 +00000-0 +53855-4 0  9999
2 39761 082.4478 024.7070 0018291 287.1432 072.7637 12.42892873207264
Epoch (UTC): 16 December 2018 16:46:30
Eccentricity: 0.0018291
inclination: 82.4478°
perigee height: 1480 km
apogee height: 1509 km
right ascension of ascending node: 24.7070°
argument of perigee: 287.1432°
revolutions per day: 12.42892873
mean anomaly at epoch: 72.7637°
orbit number at epoch: 20726

The dashed part of the orbit path shows where the satellite is in the earth's shadow,  

DLR